Volver al catálogo

CZ-4C R/B

ActivoLEO
NORAD 54250·ROCKET BODY·🇨🇳 China

Lanzado Nov 15, 2022 desde Jiuquan Satellite Launch Center

Loading…

Próximos Pases (próximas 24 horas)

TLE

ActualizadoSource: Space-Track

Época: Sep 14, 2026, 23:26 UTC

1 54250U 22154B   26257.97660927 -.00000007  00000-0  84470-4 0  9993
2 54250  63.4029 241.0803 0238094  23.9199 337.2687 13.69012611191646

Sigue CZ-4C R/B en tiempo real con AllMySat

Download on the App Store